#timestamp,LO_Frequency,Hit,StdDev 
1513861215.5,286047004.9,Y
1513861235.3,286047003.1,P
1513861255.1,286047005.0,P
1513861275.9,286047009.0,P
1513861295.7,286047010.0,Y
1513861315.5,286047005.0,P
1513861335.4,286047004.7,P
1513861355.2,286047007.4,P
1513861375.1,286047006.3,Y
1513861376.0,286047006.3,P
1513861395.8,286047001.7,P
1513861415.6,286047003.1,N
1513861435.5,286047005.4,N
1513861455.3,286047005.4,Y
1513861475.2,286046998.2,P
1513861495.9,286047000.8,N
1513861515.7,286047000.4,N
1513861535.6,286047001.9,N
1513861555.4,286047003.7,N
1513861575.2,286047005.1,N
1513861595.1,286047006.3,N
1513861596.0,286047006.3,N
1513861615.8,286047007.3,N
1513861635.7,286047005.7,N
1513861655.5,286047007.5,N
1513861675.3,286047007.2,N
1513861695.2,286047007.0,N
1513861715.0,286047006.4,N
1513861715.9,286047006.4,N
1513861735.8,286047008.6,Y
1513861755.6,286047006.9,P
1513861775.4,286047010.7,P
1513861795.3,286047010.1,P
1513861815.1,286047009.2,Y
1513861835.9,286047000.3,P
1513861855.7,286047001.4,N
1513861875.5,286047003.7,N
1513861895.4,286047003.8,N
1513861915.2,286047003.6,N
1513861935.0,286047004.5,N
1513861935.9,286047004.5,N
1513861955.8,286047008.9,Y
1513861975.6,286047005.9,P
1513861995.5,286047007.4,P
1513862015.3,286047006.8,P
1513862035.1,286047004.7,Y
1513862055.9,286047000.0,P
1513862075.7,286047000.1,N
1513862095.6,286047000.9,N
1513862115.4,286047000.8,N
1513862135.2,286046999.9,N
1513862155.1,286047002.8,N
1513862156.0,286047002.8,N
1513862175.8,286047004.4,N
1513862195.6,286047002.1,N
1513862215.5,286047002.0,N
1513862235.3,286047000.2,N
1513862255.2,286047001.7,N
1513862275.9,286046999.9,N
1513862295.7,286047002.0,N
1513862315.6,286047004.1,N
1513862335.4,286047004.0,N
1513862355.3,286047006.3,Y
1513862375.1,286047005.2,P
1513862376.0,286047005.2,P
1513862395.8,286047003.4,N
1513862415.7,286047004.6,Y
1513862435.5,286047003.0,P
1513862455.4,286047005.2,P
1513862475.2,286047005.9,P
1513862495.0,286047002.9,N
1513862495.9,286047002.9,N
1513862515.8,286047005.7,Y
1513862535.6,286047000.2,P
1513862555.4,286047002.7,N
1513862575.3,286047001.0,N
1513862595.1,286046997.5,N
1513862615.9,286046997.0,N
1513862635.7,286046998.2,N
1513862655.5,286046998.5,N
1513862675.4,286047002.3,N
1513862695.2,286047002.7,N
1513862715.1,286047000.3,N
1513862716.0,286047000.3,N
1513862735.8,286047000.2,N
1513862755.6,286047001.1,N
1513862775.5,286047000.3,N
1513862795.3,286047000.5,N
1513862815.1,286047000.3,N
1513862835.9,286047000.2,N
1513862855.7,286047002.6,N
1513862875.6,286046999.8,N
1513862895.4,286046998.6,N
1513862915.2,286046996.5,N
1513862935.1,286046999.4,N
1513862936.0,286046999.4,N
1513862955.8,286046998.4,N
1513862975.7,286047001.1,N
1513862995.5,286046998.3,N
1513863015.3,286047000.6,N
1513863035.2,286047002.3,N
1513863055.0,286047004.0,N
1513863055.9,286047004.0,N
1513863075.8,286047003.5,N
1513863095.6,286047001.4,N
1513863115.4,286047003.0,N
1513863135.3,286047003.5,N
1513863155.1,286047003.7,N
1513863175.8,286047001.9,N
1513863195.7,286046998.1,N
1513863215.5,286047002.1,N
1513863235.4,286047003.6,N
1513863255.2,286047005.6,N
1513863275.0,286047003.0,N
1513863275.9,286047003.0,N
1513863295.8,286047006.0,N
1513863315.6,286047007.2,Y
1513863335.5,286047005.4,P
1513863355.3,286047006.0,P
1513863375.1,286047005.8,N
1513863395.9,286047004.7,N
1513863415.7,286047007.3,Y
1513863435.6,286047003.2,P
1513863455.4,286047007.4,P
1513863475.2,286047006.4,P
1513863495.1,286047003.0,N
1513863496.0,286047003.0,N
1513863515.8,286047003.9,N
1513863535.7,286047001.7,N
1513863555.5,286047002.5,N
1513863575.3,286047001.5,N
1513863595.2,286047004.0,N
1513863615.0,286047001.7,N
1513863615.9,286047001.7,N
1513863635.7,286047001.4,N
1513863655.6,286047003.8,N
1513863675.4,286047003.2,N
1513863695.3,286047003.2,N
1513863715.1,286047005.0,Y
1513863735.8,286047004.3,P
1513863755.7,286047005.2,P
1513863775.5,286047003.9,P
1513863795.4,286047004.4,Y
1513863815.2,286046998.6,P
1513863835.0,286047000.7,N
1513863835.9,286047000.7,N
1513863855.8,286047004.3,N
1513863875.6,286047003.3,N
1513863895.5,286047001.4,N
1513863915.3,286047002.1,N
1513863935.1,286047000.3,N
1513863955.9,286047000.4,N
1513863975.7,286047002.6,N
1513863995.5,286047002.0,N
1513864015.4,286047001.6,N
1513864035.2,286047002.3,N
1513864055.1,286047004.4,N
1513864056.0,286047004.4,N
1513864075.8,286047002.3,N
1513864095.6,286047002.6,N
1513864115.5,286047002.8,N
1513864135.3,286047002.5,N
1513864155.2,286047001.6,N
1513864175.9,286047004.3,N
1513864195.7,286047001.3,N
1513864215.6,286047001.7,N
1513864235.4,286047002.6,N
1513864255.3,286047003.9,N
1513864275.1,286047001.9,N
1513864276.0,286047001.9,N
1513864295.8,286047002.0,N
1513864315.7,286047000.5,N
1513864335.5,286046996.6,N
1513864355.3,286046999.5,N
1513864375.2,286046998.1,N
1513864395.0,286046999.8,N
1513864395.9,286046999.8,N
1513864415.8,286047004.1,N
1513864435.6,286047007.6,Y
1513864455.4,286047003.1,P
1513864475.3,286047004.0,P
1513864495.1,286047002.5,N
1513864515.9,286047003.9,Y
1513864535.7,286047002.6,P
1513864555.5,286047002.7,P
1513864575.4,286047003.2,P
1513864595.2,286047003.3,Y
1513864615.1,286047002.7,P
1513864616.0,286047002.7,P
1513864635.8,286046998.3,P
1513864655.6,286046999.5,N
1513864675.5,286046995.5,N
1513864695.3,286046995.2,N
1513864715.2,286046999.5,N
1513864735.9,286046998.6,N
1513864755.7,286047001.9,N
1513864775.6,286047004.3,N
1513864795.4,286047003.5,N
